When you browse on this site, cookies collect data to enhance your experience and personalize the content and advertising you see.
Visit our Privacy Policy to learn more. By continuing to use the site, you agree to this use of cookies and data.
  • In Hungary
  • List of Countries
  • For 7 days
  • Water Temperature
  • Satellite Maps
  • Weather Map
  • News
  • Weather Widgets
  • user-avatar
    Login

    Hourly Weather Kleinarl

    Today, 20 February, Wednesday

    Time Temperature Precipitation Wind Pressure Humidity
    00:00 -6°C° 0 mm 1 mps 604 mmHg 79%
    01:00 -4°C° 0 mm 1 mps 604 mmHg 81%
    02:00 -6°C° 0 mm 1 mps 604 mmHg 83%
    03:00 -6°C° 0 mm 1 mps 604 mmHg 85%
    04:00 -6°C° 0 mm 1 mps 604 mmHg 87%
    05:00 -6°C° 0 mm 1 mps 604 mmHg 88%
    06:00 -7°C° 0 mm 1 mps 604 mmHg 89%
    07:00 -7°C° 0 mm 1 mps 604 mmHg 90%
    08:00 -4°C° 0 mm 1 mps 605 mmHg 91%
    09:00 -2°C° 0 mm 1 mps 606 mmHg 93%
    10:00 -1°C° 0 mm 1 mps 607 mmHg 94%
    11:00 0°C° 0 mm 1 mps 607 mmHg 94%
    12:00 0°C° 0 mm 1 mps 607 mmHg 94%
    13:00 0°C° 0 mm 1 mps 607 mmHg 94%
    14:00 0°C° 0 mm 1 mps 607 mmHg 95%
    15:00 0°C° 0 mm 1 mps 607 mmHg 95%
    16:00 0°C° 0 mm 1 mps 606 mmHg 96%
    17:00 -1°C° 0 mm 1 mps 606 mmHg 95%
    18:00 -3°C° 0 mm 1 mps 606 mmHg 95%
    19:00 -4°C° 0 mm 1 mps 606 mmHg 94%
    20:00 -6°C° 0 mm 1 mps 606 mmHg 93%
    21:00 -6°C° 0 mm 1 mps 606 mmHg 92%
    22:00 -6°C° 0 mm 1 mps 606 mmHg 91%
    23:00 -6°C° 0 mm 1 mps 606 mmHg 90%

    Tomorrow, 21 February, Thursday

    Time Temperature Precipitation Wind Pressure Humidity
    00:00 -6°C° 0 mm 1 mps 606 mmHg 89%
    01:00 -6°C° 0 mm 1 mps 607 mmHg 89%
    02:00 -6°C° 0 mm 1 mps 607 mmHg 89%
    03:00 -6°C° 0 mm 1 mps 607 mmHg 90%
    04:00 -6°C° 0 mm 1 mps 607 mmHg 90%
    05:00 -6°C° 0 mm 1 mps 607 mmHg 89%
    06:00 -6°C° 0 mm 1 mps 607 mmHg 89%
    07:00 -6°C° 0 mm 1 mps 607 mmHg 88%
    08:00 -4°C° 0 mm 1 mps 608 mmHg 88%
    09:00 -2°C° 0 mm 1 mps 609 mmHg 89%
    10:00 0°C° 0 mm 1 mps 609 mmHg 89%
    11:00 0°C° 0 mm 1 mps 609 mmHg 89%
    12:00 +1°C° 0 mm 1 mps 609 mmHg 89%
    13:00 +1°C° 0 mm 1 mps 609 mmHg 89%
    14:00 +1°C° 0 mm 1 mps 609 mmHg 91%
    15:00 +1°C° 0 mm 1 mps 609 mmHg 93%
    16:00 0°C° 0 mm 1 mps 608 mmHg 94%
    17:00 -1°C° 0 mm 1 mps 608 mmHg 94%
    18:00 -2°C° 0 mm 1 mps 608 mmHg 94%
    19:00 -4°C° 0 mm 1 mps 608 mmHg 94%
    20:00 -4°C° 0 mm 1 mps 608 mmHg 92%
    21:00 -6°C° 0 mm 1 mps 608 mmHg 90%
    22:00 -6°C° 0 mm 1 mps 608 mmHg 88%
    23:00 -7°C° 0 mm 2 mps 608 mmHg 89%

    Day after tomorrow, 22 February, Friday

    Time Temperature Precipitation Wind Pressure Humidity
    00:00 -6°C° 0 mm 2 mps 608 mmHg 89%
    01:00 -6°C° 0 mm 2 mps 608 mmHg 90%
    02:00 -6°C° 0.2 mm 2 mps 608 mmHg 91%
    03:00 -5°C° 0.2 mm 2 mps 608 mmHg 92%
    04:00 -5°C° 0.2 mm 2 mps 609 mmHg 93%
    05:00 -5°C° 0.2 mm 2 mps 609 mmHg 94%
    06:00 -5°C° 0.2 mm 2 mps 609 mmHg 94%
    07:00 -5°C° 0.2 mm 2 mps 609 mmHg 94%
    08:00 -5°C° 0.3 mm 3 mps 609 mmHg 93%
    09:00 -4°C° 0.3 mm 3 mps 609 mmHg 93%
    10:00 -4°C° 0.3 mm 3 mps 610 mmHg 92%
    11:00 -4°C° 0.7 mm 3 mps 609 mmHg 92%
    12:00 -4°C° 0.7 mm 3 mps 609 mmHg 93%
    13:00 -4°C° 0.7 mm 3 mps 609 mmHg 93%
    14:00 -4°C° 0.2 mm 3 mps 609 mmHg 93%
    15:00 -4°C° 0.2 mm 3 mps 609 mmHg 94%
    16:00 -4°C° 0.2 mm 3 mps 609 mmHg 94%
    17:00 -5°C° 0.2 mm 3 mps 610 mmHg 95%
    18:00 -5°C° 0.2 mm 3 mps 610 mmHg 95%
    19:00 -6°C° 0.2 mm 3 mps 610 mmHg 96%
    20:00 -5°C° 0.1 mm 2 mps 610 mmHg 96%
    21:00 -5°C° 0.1 mm 2 mps 611 mmHg 96%
    22:00 -5°C° 0.1 mm 2 mps 611 mmHg 97%
    23:00 -5°C° 0.1 mm 2 mps 611 mmHg 97%

    23 February, Saturday

    Time Temperature Precipitation Wind Pressure Humidity
    00:00 -5°C° 0.1 mm 2 mps 611 mmHg 97%
    01:00 -4°C° 0.1 mm 1 mps 611 mmHg 97%
    02:00 -4°C° 0 mm 1 mps 611 mmHg 96%
    03:00 -4°C° 0 mm 1 mps 611 mmHg 96%
    04:00 -6°C° 0 mm 1 mps 611 mmHg 96%
    05:00 -6°C° 0 mm 1 mps 610 mmHg 95%
    06:00 -7°C° 0 mm 1 mps 610 mmHg 95%
    07:00 -7°C° 0 mm 1 mps 610 mmHg 94%
    08:00 -6°C° 0 mm 1 mps 611 mmHg 91%
    09:00 -4°C° 0 mm 1 mps 611 mmHg 88%
    10:00 -5°C° 0 mm 2 mps 612 mmHg 86%
    11:00 -4°C° 0 mm 2 mps 612 mmHg 84%
    12:00 -4°C° 0 mm 2 mps 612 mmHg 82%
    13:00 -3°C° 0 mm 2 mps 612 mmHg 79%
    14:00 -4°C° 0 mm 2 mps 612 mmHg 78%
    15:00 -4°C° 0 mm 2 mps 611 mmHg 77%
    16:00 -4°C° 0 mm 2 mps 611 mmHg 75%
    17:00 -4°C° 0 mm 1 mps 611 mmHg 76%
    18:00 -7°C° 0 mm 1 mps 610 mmHg 77%
    19:00 -9°C° 0 mm 1 mps 610 mmHg 78%
    20:00 -9°C° 0 mm 1 mps 610 mmHg 71%
    21:00 -9°C° 0 mm 1 mps 610 mmHg 64%
    22:00 -9°C° 0 mm 1 mps 610 mmHg 57%
    23:00 -9°C° 0 mm 1 mps 610 mmHg 54%

    24 February, Sunday

    Time Temperature Precipitation Wind Pressure Humidity
    00:00 -9°C° 0 mm 1 mps 610 mmHg 51%
    01:00 -9°C° 0 mm 1 mps 610 mmHg 48%
    02:00 -9°C° 0 mm 1 mps 609 mmHg 47%
    03:00 -9°C° 0 mm 1 mps 609 mmHg 46%
    04:00 -9°C° 0 mm 1 mps 609 mmHg 45%
    05:00 -9°C° 0 mm 1 mps 609 mmHg 45%
    06:00 -9°C° 0 mm 1 mps 609 mmHg 45%
    07:00 -9°C° 0 mm 1 mps 609 mmHg 45%
    08:00 -7°C° 0 mm 1 mps 610 mmHg 51%
    09:00 -4°C° 0 mm 1 mps 611 mmHg 57%
    10:00 -1°C° 0 mm 1 mps 612 mmHg 62%
    11:00 -3°C° 0 mm 2 mps 612 mmHg 68%
    12:00 -3°C° 0 mm 2 mps 612 mmHg 73%
    13:00 -2°C° 0 mm 2 mps 612 mmHg 78%
    14:00 -2°C° 0 mm 2 mps 611 mmHg 78%
    15:00 -3°C° 0 mm 2 mps 611 mmHg 78%
    16:00 -3°C° 0 mm 2 mps 611 mmHg 79%
    17:00 -3°C° 0 mm 1 mps 610 mmHg 79%
    18:00 -6°C° 0 mm 1 mps 610 mmHg 79%
    19:00 -8°C° 0 mm 1 mps 610 mmHg 80%
    20:00 -8°C° 0 mm 1 mps 610 mmHg 78%
    21:00 -8°C° 0 mm 1 mps 610 mmHg 76%
    22:00 -8°C° 0 mm 1 mps 610 mmHg 74%
    23:00 -8°C° 0 mm 1 mps 610 mmHg 73%

    25 February, Monday

    Time Temperature Precipitation Wind Pressure Humidity
    00:00 -8°C° 0 mm 1 mps 610 mmHg 72%
    01:00 -8°C° 0 mm 1 mps 610 mmHg 70%
    02:00 -9°C° 0 mm 1 mps 609 mmHg 69%
    03:00 -9°C° 0 mm 1 mps 609 mmHg 68%
    04:00 -9°C° 0 mm 1 mps 609 mmHg 66%
    05:00 -9°C° 0 mm 1 mps 609 mmHg 65%
    06:00 -9°C° 0 mm 1 mps 609 mmHg 65%
    07:00 -9°C° 0 mm 1 mps 609 mmHg 64%
    08:00 -7°C° 0 mm 1 mps 610 mmHg 65%
    09:00 -4°C° 0 mm 1 mps 611 mmHg 66%
    10:00 -2°C° 0 mm 1 mps 612 mmHg 67%
    11:00 -1°C° 0 mm 1 mps 612 mmHg 70%
    12:00 -3°C° 0 mm 2 mps 612 mmHg 74%
    13:00 -2°C° 0 mm 2 mps 611 mmHg 78%
    14:00 -3°C° 0 mm 2 mps 611 mmHg 79%
    15:00 -3°C° 0 mm 2 mps 611 mmHg 80%
    16:00 -1°C° 0 mm 1 mps 611 mmHg 81%
    17:00 -3°C° 0 mm 1 mps 610 mmHg 83%
    18:00 -4°C° 0 mm 1 mps 610 mmHg 85%
    19:00 -7°C° 0 mm 0 mps 610 mmHg 88%
    20:00 -7°C° 0 mm 1 mps 610 mmHg 88%
    21:00 -7°C° 0 mm 1 mps 610 mmHg 88%
    22:00 -7°C° 0 mm 1 mps 610 mmHg 88%
    23:00 -7°C° 0 mm 1 mps 610 mmHg 88%
    Show more